TimePDT,TemperatureF,Dew PointF,Humidity,Sea Level PressureIn,VisibilityMPH,Wind Direction,Wind SpeedMPH,Gust SpeedMPH,PrecipitationIn,Events,Conditions,WindDirDegrees,DateUTC
12:52 AM,37.0,19.0,48,29.86,10.0,WSW,10.4,-,N/A,,Clear,250,2013-03-21 07:52:00
1:52 AM,39.9,17.1,40,29.89,10.0,SW,9.2,-,N/A,,Clear,220,2013-03-21 08:52:00
2:52 AM,37.9,19.0,47,29.92,10.0,WSW,10.4,-,N/A,,Clear,250,2013-03-21 09:52:00
3:52 AM,36.0,21.0,55,30.09,10.0,West,11.5,-,N/A,,Overcast,260,2013-03-21 10:52:00
4:52 AM,35.1,21.9,59,30.11,10.0,WSW,12.7,-,N/A,,Clear,240,2013-03-21 11:52:00
5:52 AM,35.1,21.9,59,29.99,10.0,WSW,9.2,-,N/A,,Clear,240,2013-03-21 12:52:00
6:52 AM,35.1,21.0,57,30.01,10.0,WSW,12.7,19.6,N/A,,Clear,250,2013-03-21 13:52:00
7:52 AM,37.0,21.9,54,30.02,10.0,West,10.4,-,N/A,,Clear,260,2013-03-21 14:52:00
8:52 AM,42.1,23.0,47,30.04,10.0,West,12.7,-,N/A,,Clear,260,2013-03-21 15:52:00
9:52 AM,46.0,21.0,37,30.04,10.0,WSW,10.4,-,N/A,,Clear,250,2013-03-21 16:52:00
10:52 AM,48.9,17.1,28,30.06,10.0,West,10.4,17.3,N/A,,Clear,260,2013-03-21 17:52:00
11:52 AM,50.0,18.0,28,30.06,10.0,WSW,11.5,20.7,N/A,,Mostly Cloudy,250,2013-03-21 18:52:00
12:52 PM,46.9,21.0,36,30.06,10.0,SW,20.7,29.9,N/A,,Overcast,220,2013-03-21 19:52:00
1:52 PM,50.0,21.9,33,30.05,10.0,WSW,18.4,31.1,N/A,,Overcast,240,2013-03-21 20:52:00
2:52 PM,51.1,19.0,28,30.04,10.0,West,6.9,-,N/A,,Overcast,280,2013-03-21 21:52:00
3:14 PM,51.8,15.8,24,30.01,10.0,WSW,21.9,25.3,N/A,,Mostly Cloudy,250,2013-03-21 22:14:00
3:52 PM,50.0,19.0,29,30.03,10.0,WSW,17.3,-,N/A,,Clear,250,2013-03-21 22:52:00
4:52 PM,50.0,17.1,27,30.03,10.0,WNW,13.8,-,N/A,,Clear,290,2013-03-21 23:52:00
5:52 PM,46.9,17.1,30,30.04,10.0,WNW,15.0,20.7,N/A,,Clear,300,2013-03-22 00:52:00
6:52 PM,45.0,19.0,36,30.03,10.0,West,8.1,-,N/A,,Scattered Clouds,260,2013-03-22 01:52:00
7:52 PM,41.0,23.0,49,30.04,10.0,West,11.5,-,N/A,,Scattered Clouds,260,2013-03-22 02:52:00
8:52 PM,41.0,23.0,49,30.04,10.0,West,17.3,-,N/A,,Scattered Clouds,270,2013-03-22 03:52:00
9:52 PM,39.9,23.0,51,30.06,10.0,West,11.5,-,N/A,,Clear,270,2013-03-22 04:52:00
10:52 PM,37.9,24.1,57,30.08,10.0,West,6.9,-,N/A,,Partly Cloudy,280,2013-03-22 05:52:00
11:52 PM,37.9,19.9,48,30.08,10.0,NW,3.5,-,N/A,,Mostly Cloudy,320,2013-03-22 06:52:00